Find Starlink 32334

NORAD ID: 62023 Int'l Des: 2024-213 Owner: SPXS Country: US Constellation: starlink operational
LEOCIRCULAR

当前视图

正在加载3D地球...

About Starlink 32334

Starlink 32334 (NORAD 62023) is a starlink constellation satellite (v2 mini) launched Nov 18, 2024 by SPXS of US. It operates in LEO, CIRCULAR orbit with a mass of 730.00 kg.

关于 Starlink 32334

正在加载描述...

即将过境

Passes for default location (London). Set your location on the main map for personalized predictions.

高度历史

Loading altitude history...

两行轨道根数

1 62023U 24213R 26173.35476005 .00013328 00000-0 46119-3 0 9995
2 62023 53.1620 41.6674 0000878 105.8399 254.2699 15.30208616 89183
Epoch: Jun 22, 2026 • Age: 37 hours

当前状态

高度 493.4 km
速度 7.62 km/s
星下点 -51.16°S, 87.63°E
发射日期 Nov 18, 2024
运行时间 1.5 years
类型 internet

技术详情

分类 Payload
质量 730.00 kg
干质量 700.00 kg
总质量 730.00 kg
长度 0.30 m
直径 4.10 m
跨度 29.00 m
形状 Box + pan
制造商 SPXS
平台类型 Starlink V2M
阶段状态 In Orbit
所有者/国家 SPXS/US

Most Searched